User: anonymous   Login
Location: Fountain Hills
(33.6120°N, 111.7170°W)
Time: 01:44:49
(UTC-07:00)
Language:

Hamsat - Orbit

View from above orbital plane
View from above orbital plane
View from above satellite
View from above satellite

Ground track
Ground track

The orbit data is extracted from the following two-line orbital elements,

1 28650U 05017B   16240.86750774  .00000454  00000-0  54485-4 0  9994
2 28650  97.6144 219.8763 0024395  25.5160 334.7256 14.88372199612531
Epoch (UTC): 27 August 2016 20:49:12
Eccentricity: 0.0024395
inclination: 97.6144°
perigee height: 586 km
apogee height: 620 km
right ascension of ascending node: 219.8763°
argument of perigee: 25.5160°
revolutions per day: 14.88372199
mean anomaly at epoch: 334.7256°
orbit number at epoch: 61253

The dashed part of the orbit path shows where the satellite is in the earth's shadow,  

DLR